Погода в Канелонесе

Уругвай     34°31′29″S   56°16′32″W
темп.,
°C
ветер,
м/с
пор.,
м/с
влажн.,
%
обл.,
%
осадки,
мм/ч
давл.,
гПа
погр.,
м
9 августа, вт
вт900:00+9вюв3769100 0.0 1030225
03:00+7вюв3677100 0.0 103098
06:00+7юв3385100 0.0 103049
09:00+9вюв25775 0.0 1032175
12:00+14юв55535 0.0 10321411
15:00+13юв55505 0.0 10301407
18:00+9юв36710 0.0 1030115
21:00+6юв35900 0.0 103267
10 августа, ср
ср1000:00+5вюв33910 0.0 103135
03:00+4в22930 0.0 103018
06:00+4св22940 0.0 102928
09:00+7св11830 0.0 103090
12:00+13св34505 0.0 1029811
15:00+15ссв3448100 0.0 10261204
18:00+11св3367100 0.0 102522
21:00+9св3477100 0.0 102674
11 августа, чт
чт1100:00+7св36845 0.0 1026102
03:00+6ссв36930 0.0 1025100
06:00+5ссв35930 0.0 102580
09:00+7с47800 0.0 1026194
12:00+14с56580 0.0 1025882
15:00+17с67510 0.0 10221289
18:00+12ссв47730 0.0 1021105
21:00+9ссв410900 0.0 1022156
12 августа, пт
пт1200:00+8ссв410935 0.0 1022177
03:00+7ссв310945 0.0 1021182
06:00+7св399542 0.0 1020186
09:00+10ссв41186100 0.0 1020297
12:00+16ссв6863100 0.0 1018832
15:00+19с5758100 0.0 10161227
18:00+15с3679100 0.0 1015100
21:00+12ссв4993100 0.0 1017147
13 августа, сб
сб1300:00+11с310950 0.0 1017192
03:00+11с34960 0.0 101783
06:00+10с35961 0.0 101777
09:00+13с22885 0.0 1018115
12:00+19с22670 0.0 1018657
15:00+21ссв33550 0.0 10161144
18:00+17св33730 0.0 101620
21:00+13св34900 0.0 101751